CW6344 Weather Reports


time (UTC)temp
C
wind
direction
speed
KPH
gust
KPH
rain 1hr
cm
rain 24hr
cm
rain mn
cm
humidity
%
barometer
mb
20260903213437 31 241 0.0 1.6 0.00 0.00 0.00 74 1013.9
20260903212507 31 294 1.6 4.8 0.00 0.00 0.00 73 1014.0
20260903210437 31 225 1.6 3.2 0.00 0.00 0.00 71 1014.0
20260903205437 31 285 3.2 3.2 0.00 0.00 0.00 74 1014.1
20260903204438 31 228 0.0 1.6 0.00 0.00 0.00 69 1014.2
20260903203437 31 284 0.0 1.6 0.00 0.00 0.00 74 1014.4
20260903202437 31 279 1.6 1.6 0.00 0.00 0.00 77 1014.6
20260903201437 31 279 0.0 1.6 0.00 0.00 0.00 75 1014.7
20260903200507 31 288 0.0 3.2 0.00 0.00 0.00 77 1014.7
20260903195437 30 286 3.2 4.8 0.00 0.00 0.00 75 1014.7
20260903194437 30 260 0.0 0.0 0.00 0.00 0.00 78 1015.0
20260903193437 31 228 0.0 0.0 0.00 0.00 0.00 75 1014.9
20260903192437 31 263 0.0 4.8 0.00 0.00 0.00 75 1014.8
20260903191437 31 292 1.6 1.6 0.00 0.00 0.00 76 1014.9
20260903190437 31 233 0.0 1.6 0.00 0.00 0.00 76 1014.9
20260903185437 31 239 3.2 3.2 0.00 0.05 0.00 75 1015.0
20260903184437 31 234 0.0 4.8 0.00 0.05 0.00 77 1015.2
20260903182437 31 302 1.6 4.8 0.00 0.05 0.00 77 1015.4
20260903181437 31 279 0.0 4.8 0.00 0.05 0.00 78 1015.7
20260903180437 31 227 0.0 1.6 0.00 0.05 0.00 78 1015.9
20260903175437 30 295 1.6 3.2 0.00 0.05 0.00 78 1016.1
20260903174437 31 276 0.0 3.2 0.00 0.05 0.00 77 1016.1
20260903173437 30 190 1.6 4.8 0.00 0.05 0.00 79 1016.2
20260903172507 30 275 1.6 3.2 0.00 0.05 0.00 80 1016.3
20260903171437 30 263 1.6 1.6 0.00 0.05 0.00 79 1016.4
20260903170437 30 217 0.0 4.8 0.00 0.05 0.00 78 1016.4
20260903165437 30 213 0.0 6.4 0.00 0.05 0.00 79 1016.3
20260903164507 30 217 0.0 4.8 0.00 0.05 0.00 80 1016.7
20260903163437 30 284 0.0 1.6 0.00 0.05 0.00 81 1016.7
20260903162437 30 286 3.2 3.2 0.00 0.05 0.00 81 1016.8
20260903160508 29 30 0.0 0.0 0.00 0.05 0.00 82 1017.1
20260903155437 29 227 0.0 4.8 0.00 0.05 0.00 83 1017.2
20260903154437 28 246 0.0 3.2 0.00 0.05 0.00 83 1017.1
20260903152508 28 17 0.0 1.6 0.00 0.05 0.00 84 1017.0
20260903150508 28 17 1.6 3.2 0.00 0.05 0.00 84 1016.6
20260903145438 28 140 1.6 4.8 0.00 0.05 0.00 85 1016.4
20260903144437 27 109 0.0 1.6 0.00 0.05 0.00 86 1016.5
20260903143437 27 186 0.0 1.6 0.00 0.05 0.00 87 1016.6
20260903142438 27 167 0.0 0.0 0.00 0.05 0.00 87 1016.7
20260903141438 27 167 0.0 3.2 0.00 0.05 0.00 87 1017.1
20260903140437 27 148 0.0 0.0 0.00 0.05 0.00 89 1017.2
20260903135438 26 182 0.0 4.8 0.00 0.05 0.00 89 1017.1
20260903134438 26 243 0.0 0.0 0.00 0.05 0.00 90 1017.2
20260903133437 26 243 0.0 0.0 0.00 0.05 0.00 91 1017.3
20260903132438 26 243 0.0 0.0 0.00 0.05 0.00 91 1017.5
20260903130507 26 243 0.0 0.0 0.00 0.05 0.00 92 1017.7
20260903125437 26 243 0.0 0.0 0.00 0.05 0.00 92 1017.8
20260903124437 25 243 0.0 1.6 0.00 0.05 0.00 93 1017.8
20260903123438 25 243 0.0 0.0 0.00 0.05 0.00 93 1017.8
20260903122438 25 243 0.0 0.0 0.00 0.05 0.00 93 1017.8
20260903121438 25 243 0.0 0.0 0.00 0.05 0.00 94 1017.3
20260903120508 24 243 0.0 0.0 0.00 0.05 0.00 93 1017.4
20260903115438 24 243 0.0 0.0 0.00 0.05 0.00 94 1017.5
20260903114438 23 243 0.0 0.0 0.00 0.05 0.00 93 1017.4
20260903112438 23 243 0.0 0.0 0.00 0.05 0.00 94 1017.1
20260903111438 23 267 0.0 0.0 0.00 0.05 0.00 93 1016.9
20260903110508 23 302 0.0 0.0 0.00 0.05 0.00 93 1016.9
20260903105438 23 302 0.0 0.0 0.00 0.05 0.00 93 1017.0
20260903104438 23 302 0.0 0.0 0.00 0.05 0.00 93 1017.0
20260903102438 22 113 0.0 0.0 0.00 0.05 0.00 93 1016.8
20260903101438 22 113 0.0 0.0 0.00 0.05 0.00 93 1016.7
20260903100438 22 113 0.0 0.0 0.00 0.05 0.00 93 1016.5
20260903095438 22 113 0.0 0.0 0.00 0.05 0.00 93 1016.5
20260903094438 22 113 0.0 0.0 0.00 0.05 0.00 93 1016.6
20260903093438 22 113 0.0 0.0 0.00 0.05 0.00 93 1016.5
20260903092508 22 113 0.0 0.0 0.00 0.05 0.00 93 1016.3
20260903090438 22 113 0.0 0.0 0.00 0.05 0.00 93 1016.3
20260903085438 22 113 0.0 0.0 0.00 0.05 0.00 93 1016.4
20260903084438 22 113 0.0 0.0 0.00 0.05 0.00 93 1016.5
20260903083438 22 113 0.0 0.0 0.00 0.05 0.00 93 1016.6
20260903082438 22 113 0.0 0.0 0.00 0.05 0.00 93 1016.5
20260903081438 22 113 0.0 0.0 0.00 0.05 0.00 93 1016.5
20260903080438 22 113 0.0 0.0 0.00 0.05 0.00 93 1016.5
20260903075438 22 113 0.0 0.0 0.00 0.05 0.00 93 1016.4
20260903074438 22 113 0.0 0.0 0.00 0.05 0.00 93 1016.5
20260903073438 22 113 0.0 0.0 0.00 0.05 0.00 93 1016.4
20260903072438 22 113 0.0 0.0 0.00 0.05 0.00 93 1016.4
20260903071438 22 113 0.0 0.0 0.00 0.05 0.00 92 1016.4
20260903070508 23 113 0.0 0.0 0.00 0.05 0.00 93 1016.4
20260903065438 23 113 0.0 0.0 0.00 0.05 0.00 93 1016.4
20260903064508 23 113 0.0 0.0 0.00 0.05 0.00 93 1016.4
20260903063438 23 113 0.0 0.0 0.00 0.05 0.00 92 1016.6
20260903062508 23 113 0.0 0.0 0.00 0.05 0.00 92 1016.4
20260903061438 23 113 0.0 0.0 0.00 0.05 0.00 92 1016.6
20260903060438 23 113 0.0 0.0 0.00 0.05 0.00 92 1016.8
20260903055438 23 113 0.0 0.0 0.00 0.05 0.00 92 1016.9
20260903054438 23 113 0.0 0.0 0.00 0.05 0.00 92 1017.1
20260903053438 23 113 0.0 0.0 0.00 0.05 0.00 92 1017.1
20260903052438 23 113 0.0 0.0 0.00 0.05 0.00 92 1017.0
20260903051438 23 113 0.0 0.0 0.00 0.05 0.00 92 1017.2
20260903050438 23 113 0.0 0.0 0.00 0.05 0.00 92 1017.1
20260903045438 23 113 0.0 0.0 0.00 0.05 0.00 92 1017.1
20260903044508 23 113 0.0 0.0 0.00 0.05 0.00 92 1017.0
20260903043438 23 113 0.0 0.0 0.00 0.05 0.00 92 1016.9
20260903042438 23 113 0.0 0.0 0.00 0.05 0.00 93 1017.0
20260903041438 23 113 0.0 0.0 0.00 0.05 0.00 93 1017.0
20260903040438 23 113 0.0 0.0 0.00 0.05 0.05 93 1017.1
20260903035438 23 113 0.0 0.0 0.00 0.05 0.05 93 1017.2
20260903034438 23 113 0.0 0.0 0.00 0.05 0.05 93 1017.1
20260903033438 22 113 0.0 0.0 0.00 0.05 0.05 93 1017.1
20260903032508 22 113 0.0 0.0 0.00 0.05 0.05 93 1017.1
20260903031438 22 113 0.0 0.0 0.00 0.05 0.05 92 1017.1
20260903030438 22 113 0.0 0.0 0.00 0.05 0.05 93 1016.8
20260903025438 22 113 0.0 0.0 0.00 0.05 0.05 92 1016.8
20260903024438 22 113 0.0 0.0 0.00 0.05 0.05 92 1016.9
20260903023439 22 113 0.0 0.0 0.00 0.05 0.05 92 1016.9
20260903022438 22 113 0.0 0.0 0.00 0.05 0.05 92 1016.8
20260903021438 22 113 0.0 0.0 0.00 0.05 0.05 92 1017.0
20260903020438 22 113 0.0 0.0 0.00 0.05 0.05 92 1017.4
20260903014538 22 113 0.0 0.0 0.00 0.05 0.05 92 1017.5
20260903013438 22 113 0.0 0.0 0.00 0.05 0.05 92 1017.4
20260903012438 22 113 0.0 0.0 0.00 0.05 0.05 92 1017.3
20260903010508 22 113 0.0 0.0 0.00 0.05 0.05 92 1017.2
20260903005438 22 113 0.0 0.0 0.00 0.05 0.05 91 1017.3
20260903004438 22 113 0.0 0.0 0.00 0.05 0.05 91 1017.2
20260903002438 22 113 0.0 0.0 0.00 0.05 0.05 91 1016.9
20260903001438 22 113 0.0 0.0 0.00 0.05 0.05 91 1016.6
20260903000508 22 113 0.0 0.0 0.00 0.05 0.05 91 1016.6
20260902235438 23 113 0.0 0.0 0.00 0.05 0.05 91 1016.8
20260902234508 23 113 0.0 0.0 0.00 0.05 0.05 91 1016.8
20260902232438 23 113 0.0 0.0 0.00 0.05 0.05 90 1017.2
20260902230438 23 113 0.0 0.0 0.00 0.05 0.05 90 1017.2
20260902225438 23 111 0.0 0.0 0.00 0.05 0.05 89 1017.1
20260902224438 23 105 0.0 0.0 0.00 0.05 0.05 89 1016.9
20260902223438 23 99 0.0 0.0 0.00 0.05 0.05 89 1016.9
20260902222439 23 123 0.0 0.0 0.00 0.05 0.05 89 1016.9
20260902221438 23 76 0.0 0.0 0.00 0.05 0.05 88 1016.9
20260902220439 23 76 0.0 0.0 0.00 0.05 0.05 88 1017.1
20260902215438 23 76 0.0 0.0 0.00 0.05 0.05 88 1016.8
20260902214439 23 76 0.0 0.0 0.00 0.05 0.05 88 1017.2